Location: York
(31.8935°S, 116.7682°E)
Time: 18:12:21
(UTC+08:00)

Hubble Space Telescope - Pass Details

Date: 18 May 2021
Orbit: 535 x 539 km, 28.5° (Epoch: 17 June)

Event Time Altitude Azimuth Distance (km) Brightness Sun altitude
Rises 19:06:44 0° 286° (WNW) 2,687 5.8 -22.1°
Reaches altitude 10° 19:09:03 10° 291° (WNW) 1,797 4.5 -22.5°
Enters shadow 19:13:00 49° 2° (N) 701 1.3 -23.4°
